Date String (YYYY-MM-DD hh:mm:ss) UTC,Instrument flags,Ambient pressure (hPa),Sample flow (lpm),Bypass flow (lpm),Sample temperature (°C),Ambient temperature (°C),ASC tube jacket temperature (°C),LED temperature (°C),Box temperature (°C),Sample RH (%),Span deviation,Mass concentration (μg/m³),Mass concentration (μg/m³),Mass concentration (μg/m³)
DateTimeUTC,F1_M11,P_M11,Q1_M11,Q2_M11,T1_M11,T2_M11,T3_M11,T4_M11,T5_M11,U1_M11,ZSPAN_M11,X2_M11,X0_M11,X1_M11
2023-02-28 15:00:00,,0810.5,5.00,0.00,22.1,20.3,00.0,30.9,23.6,11.4,0000.0,0000.72,0001.26,0000.47
2023-02-28 15:01:00,,0810.5,5.00,0.00,22.0,20.2,00.0,30.9,23.5,11.5,0000.0,0000.72,0001.25,0000.47
2023-02-28 15:02:00,,0810.4,5.01,0.00,22.0,20.1,00.0,30.9,23.5,11.5,0000.0,0000.73,0001.29,0000.47
2023-02-28 15:03:00,,0810.4,5.00,0.00,21.9,20.1,00.0,30.9,23.5,11.5,0000.0,0000.74,0001.35,0000.46
2023-02-28 15:04:00,,0810.4,4.99,0.00,21.9,20.0,00.0,30.8,23.4,11.7,0000.0,0000.75,0001.41,0000.46
2023-02-28 15:05:00,,0810.4,5.01,0.00,21.8,20.3,00.0,30.8,23.4,11.8,0000.0,0000.77,0001.74,0000.46
2023-02-28 15:06:00,,0810.5,4.98,0.00,21.9,21.8,00.0,30.8,23.7,11.9,0000.0,0000.76,0001.83,0000.46
2023-02-28 15:07:00,,0810.5,5.01,0.00,22.1,22.8,00.0,30.8,24.0,11.6,0000.0,0000.73,0001.76,0000.46
2023-02-28 15:08:00,,0810.5,5.00,0.00,22.1,22.4,00.0,30.9,24.0,11.6,0000.0,0000.77,0001.99,0000.46
2023-02-28 15:09:00,,0810.6,5.02,0.00,22.1,21.8,00.0,30.9,23.9,11.5,0000.0,0000.78,0002.21,0000.46
2023-02-28 15:10:00,,0810.6,5.00,0.00,22.1,21.3,00.0,30.9,23.7,11.5,0000.0,0000.78,0002.19,0000.46
2023-02-28 15:11:00,,0810.6,5.00,0.00,22.0,20.9,00.0,30.9,23.6,11.5,0000.0,0000.79,0002.23,0000.47
2023-02-28 15:12:00,,0810.6,5.01,0.00,22.0,20.6,00.0,30.8,23.4,11.6,0000.0,0000.79,0002.24,0000.48
2023-02-28 15:13:00,,0810.6,5.00,0.00,21.9,20.4,00.0,30.8,23.4,11.6,0000.0,0000.79,0002.25,0000.48
2023-02-28 15:14:00,,0810.6,5.00,0.00,21.9,20.2,00.0,30.8,23.3,11.7,0000.0,0000.79,0002.27,0000.48
2023-02-28 15:15:00,,0810.6,5.00,0.00,21.8,20.1,00.0,30.8,23.2,11.7,0000.0,0000.78,0002.28,0000.49
2023-02-28 15:16:00,,0810.5,4.99,0.00,21.8,19.9,00.0,30.7,23.2,11.5,0000.0,0000.80,0002.01,0000.50
2023-02-28 15:17:00,,0810.4,5.00,0.00,21.7,19.8,00.0,30.7,23.1,11.5,0000.0,0000.80,0001.91,0000.50
2023-02-28 15:18:00,,0810.4,5.00,0.00,21.6,19.8,00.0,30.7,23.1,11.7,0000.0,0000.84,0001.98,0000.51
2023-02-28 15:19:00,,0810.3,5.00,0.00,21.7,21.1,00.0,30.6,23.4,11.6,0000.0,0000.83,0001.85,0000.51
2023-02-28 15:20:00,,0810.3,4.99,0.00,21.9,22.6,00.0,30.7,23.8,11.4,0000.0,0000.82,0001.61,0000.50
2023-02-28 15:21:00,,0810.3,5.00,0.00,22.0,22.6,00.0,30.7,23.9,11.6,0000.0,0000.82,0001.61,0000.50
2023-02-28 15:22:00,,0810.4,5.01,0.00,22.0,21.9,00.0,30.7,23.8,11.5,0000.0,0000.82,0001.59,0000.50
2023-02-28 15:23:00,,0810.4,4.99,0.00,22.0,21.4,00.0,30.7,23.6,11.6,0000.0,0000.84,0001.64,0000.50
2023-02-28 15:24:00,,0810.4,5.00,0.00,21.9,21.0,00.0,30.7,23.5,11.6,0000.0,0000.86,0001.69,0000.50
2023-02-28 15:25:00,,0810.3,4.99,0.00,21.9,20.7,00.0,30.7,23.4,11.7,0000.0,0000.88,0001.69,0000.51
2023-02-28 15:26:00,,0810.3,5.01,0.00,21.8,20.4,00.0,30.7,23.3,11.4,0000.0,0000.87,0001.62,0000.51
2023-02-28 15:27:00,,0810.3,4.99,0.00,21.8,20.2,00.0,30.7,23.2,11.4,0000.0,0000.88,0001.67,0000.52
2023-02-28 15:28:00,,0810.3,5.00,0.00,21.7,20.1,00.0,30.7,23.2,11.3,0000.0,0000.86,0001.60,0000.52
2023-02-28 15:29:00,,0810.3,4.99,0.00,21.7,20.0,00.0,30.6,23.2,11.5,0000.0,0000.86,0001.66,0000.52
2023-02-28 15:30:00,,0810.3,5.01,0.00,21.7,19.9,00.0,30.6,23.1,11.4,0000.0,0000.85,0001.61,0000.52
2023-02-28 15:31:00,,0810.3,4.98,0.00,21.6,19.9,00.0,30.6,23.1,11.2,0000.0,0000.85,0001.59,0000.53
2023-02-28 15:32:00,,0810.3,5.01,0.00,21.6,19.9,00.0,30.6,23.0,11.5,0000.0,0000.85,0001.60,0000.52
2023-02-28 15:33:00,,0810.3,4.99,0.00,21.6,19.8,00.0,30.6,23.0,11.5,0000.0,0000.85,0001.60,0000.52
2023-02-28 15:34:00,,0810.3,5.00,0.00,21.5,19.9,00.0,30.5,23.0,11.5,0000.0,0000.87,0001.67,0000.52
2023-02-28 15:35:00,,0810.4,5.00,0.00,21.6,21.2,00.0,30.5,23.4,11.3,0000.0,0000.86,0001.63,0000.52
2023-02-28 15:36:00,,0810.3,4.98,0.00,21.8,22.6,00.0,30.5,23.8,10.8,0000.0,0000.82,0001.55,0000.51
2023-02-28 15:37:00,,0810.3,5.02,0.00,21.9,22.6,00.0,30.6,23.9,11.1,0000.0,0000.83,0001.59,0000.52
2023-02-28 15:38:00,,0810.3,5.00,0.00,21.9,22.0,00.0,30.6,23.7,11.3,0000.0,0000.83,0001.55,0000.51
2023-02-28 15:39:00,,0810.4,5.01,0.00,21.9,21.5,00.0,30.6,23.6,11.4,0000.0,0000.82,0001.53,0000.51
2023-02-28 15:40:00,,0810.4,4.99,0.00,21.9,21.1,00.0,30.6,23.5,11.6,0000.0,0000.83,0001.49,0000.51
2023-02-28 15:41:00,,0810.3,5.02,0.00,21.9,20.9,00.0,30.7,23.4,11.5,0000.0,0000.85,0001.49,0000.53
2023-02-28 15:42:00,,0810.3,5.00,0.00,21.8,20.6,00.0,30.6,23.4,11.6,0000.0,0000.89,0001.58,0000.53
2023-02-28 15:43:00,,0810.4,5.00,0.00,21.8,20.5,00.0,30.6,23.4,11.5,0000.0,0000.91,0001.65,0000.54
2023-02-28 15:44:00,,0810.3,4.98,0.00,21.8,20.3,00.0,30.6,23.3,11.3,0000.0,0000.90,0001.59,0000.55
2023-02-28 15:45:00,,0810.2,4.99,0.00,21.8,20.3,00.0,30.6,23.4,11.6,0000.0,0000.88,0001.94,0000.55
2023-02-28 15:46:00,,0810.3,5.02,0.00,21.8,20.3,00.0,30.6,23.4,11.3,0000.0,0000.88,0002.75,0000.55
2023-02-28 15:47:00,,0810.3,4.99,0.00,21.8,20.2,00.0,30.6,23.3,11.1,0000.0,0000.87,0002.69,0000.56
2023-02-28 15:48:00,,0810.2,5.01,0.00,21.7,20.2,00.0,30.6,23.3,11.1,0000.0,0000.90,0002.79,0000.56
2023-02-28 15:49:00,,0810.2,4.99,0.00,21.7,20.1,00.0,30.6,23.2,11.1,0000.0,0000.89,0002.92,0000.57
2023-02-28 15:50:00,,0810.2,5.00,0.00,21.7,20.0,00.0,30.6,23.2,10.9,0000.0,0000.94,0003.02,0000.58
2023-02-28 15:51:00,,0810.2,4.99,0.00,21.6,19.9,00.0,30.5,23.1,10.8,0000.0,0000.96,0003.07,0000.60
2023-02-28 15:52:00,,0810.1,5.03,0.00,21.6,19.8,00.0,30.5,23.1,10.2,0000.0,0000.99,0003.18,0000.60
2023-02-28 15:53:00,,0810.1,4.98,0.00,21.6,19.8,00.0,30.5,23.1,10.2,0000.0,0000.99,0003.18,0000.60
2023-02-28 15:54:00,,0810.1,5.03,0.00,21.6,20.9,00.0,30.5,23.4,10.1,0000.0,0000.98,0003.13,0000.60
2023-02-28 15:55:00,,0810.1,4.98,0.00,21.8,22.7,00.0,30.5,23.8,10.2,0000.0,0000.99,0003.17,0000.60
2023-02-28 15:56:00,,0810.2,4.99,0.00,21.9,23.1,00.0,30.6,24.0,10.3,0000.0,0001.03,0003.11,0000.59
2023-02-28 15:57:00,,0810.2,5.00,0.00,22.0,22.5,00.0,30.6,23.9,10.1,0000.0,0001.05,0003.95,0000.59
2023-02-28 15:58:00,,0810.2,4.98,0.00,22.0,22.0,00.0,30.7,23.9,10.4,0000.0,0001.08,0004.07,0000.59
2023-02-28 15:59:00,,0810.2,5.01,0.00,22.0,21.6,00.0,30.7,23.8,10.4,0000.0,0001.10,0004.05,0000.60
